{"data":{"norad_id":52443,"epoch":"2026-09-20T22:27:32.619744Z","epoch_age_seconds":86633,"freshness":"FRESH","line1":"1 52443U 22048A   26263.93579421  .00001533  00000+0  98233-4 0  9993","line2":"2 52443  97.5184 339.3354 0017912 356.7628   3.3482 15.09896063241645","mean_motion":15.09896063,"eccentricity":0.0017912,"inclination_deg":97.5184,"raan_deg":339.3354,"arg_perigee_deg":356.7628,"mean_anomaly_deg":3.3482,"bstar":9.8233e-5,"rev_number":24164,"period_min":95.370803016658,"perigee_km":524.13177964474,"apogee_km":548.9028372393,"semimajor_km":6914.654308442,"source":"CELESTRAK","updated_at":"2026-09-21T09:00:08.574648Z"}}